Phoenix Deer Valley, AZ

1:56 PM MST on September 16, 2019 (GMT -0700)
Phoenix-Deer Valley Municipal

Weather History for KDVT - July, 2019

Change the Weather History Date:

Friday, July 26, 2019

  Actual Average Record
Temperature  
Mean Temperature 99 °F -  
Max Temperature 107 °F 101 °F 109 °F (2018)
Min Temperature 91 °F 81 °F 73 °F (2014)
Cooling Degree Days 34    
Growing Degree Days 49 (Base 50)    
Moisture  
Dew Point 61 °F    
Average Humidity 29    
Maximum Humidity 39    
Minimum Humidity 21    
Precipitation  
Precipitation 0.00 in - - ()
Sea Level Pressure  
Sea Level Pressure 29.89 in    
Wind  
Wind Speed 7 mph (SW)    
Max Wind Speed 15 mph    
Max Gust Speed 21 mph    
Visibility 10 miles    
Events      
Averages and records for this station are not official NWS values.
T = Trace of Precipitation, MM = Missing Value Source: NWS Daily Summary

Daily Weather History Graph

Daily Weather History Graph

Search for Another Location

Airport or City:

Astronomy

Jul. 26, 2019 Rise Set
Actual Time 5:36 AM MST 7:33 PM MST
Civil Twilight 5:08 AM MST 8:00 PM MST
Nautical Twilight 4:34 AM MST 8:34 PM MST
Astronomical Twilight 3:58 AM MST 9:10 PM MST
Moon 12:45 AM MST (7/26) 2:26 PM MST (7/26)
Length of Visible Light 14h 52m
Length of Day
13h 57m
Waning Crescent, 33% of the Moon is Illuminated
Jul 26
Waning Crescent
Jul 31
New
Aug 7
First Quarter
Aug 15
Full
Aug 23
Last Quarter

Hourly Weather History & Observations

Time (MST) Temp. Heat Index Dew Point Humidity Pressure Visibility Wind Dir Wind Speed Gust Speed Precip Events Conditions
12:53 AM 96.1 °F 96.4 °F 61.0 °F 31% 29.81 in - North - - N/A   Unknown
1:53 AM - - - N/A% 29.90 in - North - - N/A   Unknown
2:53 AM - - - N/A% 29.90 in - North - - N/A   Unknown
3:53 AM - - - N/A% 29.91 in - North - - N/A   Unknown
4:53 AM - - - N/A% 29.93 in - North - - N/A   Unknown
5:53 AM - - - N/A% 29.95 in - North - - N/A   Unknown
6:53 AM - - - N/A% 29.97 in - North - - N/A   Unknown
7:53 AM 91.0 °F 91.9 °F 63.0 °F 39% 29.90 in 10.0 mi SSE 5.8 mph - N/A   Unknown
8:53 AM 93.0 °F 93.0 °F 61.0 °F 34% 29.91 in 10.0 mi WSW 8.1 mph - N/A   Clear
9:53 AM 95.0 °F 95.6 °F 62.1 °F 33% 29.91 in 10.0 mi Variable 3.5 mph - N/A   Clear
10:53 AM 97.0 °F 97.8 °F 62.1 °F 31% 29.89 in 10.0 mi South 5.8 mph - N/A   Clear
11:53 AM 100.0 °F 101.2 °F 61.0 °F 28% 29.87 in 10.0 mi SW 8.1 mph - N/A   Clear
12:53 PM 104.0 °F 106.0 °F 62.1 °F 25% 29.85 in 10.0 mi SW 6.9 mph - N/A   Clear
1:53 PM 105.1 °F 107.1 °F 61.0 °F 24% 29.91 in 10.0 mi SSW 10.4 mph - N/A   Clear
3:53 PM 107.1 °F 108.9 °F 60.1 °F 22% 29.86 in 10.0 mi West 15.0 mph 20.7 mph N/A   Clear
4:53 PM 106.0 °F 106.4 °F 59.0 °F 21% 29.84 in 10.0 mi West 11.5 mph - N/A   Clear
5:53 PM - - - N/A% 29.84 in - North - - N/A   Unknown
6:53 PM - - - N/A% 29.84 in - North - - N/A   Unknown
7:53 PM - - - N/A% 29.87 in - North - - N/A   Unknown
8:53 PM - - - N/A% 29.88 in - North - - N/A   Unknown
9:53 PM - - - N/A% 29.89 in - North - - N/A   Unknown
10:53 PM - - - N/A% 29.90 in - North - - N/A   Unknown
11:53 PM - - - N/A% 29.92 in - North - - N/A   Unknown